sat.trackr.live / text

‹ back to catalog

TEN-KOH

NORAD 43677 · 2018-084G

PAYLOAD ACTIVE UNKNOWN

§ Identity

Operator
Country
JPN
Launch date
2018-10-29
Launch site
TANSC
Launch vehicle
Mass (kg)
RCS (m²)

External: N2YO · Heavens-Above · Gunter

§ Orbital elements

Epoch: 2026-05-25T02:05:20.806368Z

Period
95.82 min
Inclination
98.0756°
Eccentricity
0.0009374
Mean motion
15.02811720 rev/d
Perigee alt
551.7 km
Apogee alt
564.7 km
Semi-major
6,936.4 km
B*
1.8225e-4
RAAN
336.4779°
Arg perigee
191.9139°
Mean anomaly
168.1864°
Rev number
41,269

§ Raw data

TEN-KOH1 43677U 18084G   26145.08704637  .00002375  00000+0  18225-3 0  99982 43677  98.0756 336.4779 0009374 191.9139 168.1864 15.02811720412692

JSON: /api/v1/satellites/43677 · /tle

For live sub-satellite position, see the globe view (requires WebGL).

§ Visibility from observer

Set your observer location to see the next 7 days of passes ≥ 10°. The values pass through the URL so the page stays shareable.

No JS? Fill the form by hand. The geolocation button needs JavaScript.

§ Radio — SatNOGS DB

ModeDescriptionDownlinkUplink
CW CW Beacon 437.390 MHz
GMSK Telemetry GMSK9k6 AX.25 437.390 MHz 435.280 MHz
WSJT WSJT 437.510 MHz

3 transmitters · refreshed weekly from db.satnogs.org